owner,sensor,date,latitude,longitude,vertical_datum,sea_water_temperature,qcFlag 
WAVCIS,ioos:station:WAVCIS:CSI16:2,2011-09-01T00:00:00Z,29.4012,-89.0355,10.0,27.485,11111222 
WAVCIS,ioos:station:WAVCIS:CSI16:2,2011-09-01T00:15:00Z,29.4012,-89.0355,10.0,27.559,11111222 
WAVCIS,ioos:station:WAVCIS:CSI16:2,2011-09-01T00:30:00Z,29.4012,-89.0355,10.0,27.656,11111222 
WAVCIS,ioos:station:WAVCIS:CSI16:2,2011-09-01T00:45:00Z,29.4012,-89.0355,10.0,27.635,11111222 
WAVCIS,ioos:station:WAVCIS:CSI16:2,2011-09-01T01:00:00Z,29.4012,-89.0355,10.0,27.717,11111222 
WAVCIS,ioos:station:WAVCIS:CSI16:2,2011-09-01T01:15:00Z,29.4012,-89.0355,10.0,27.637,11111222 
WAVCIS,ioos:station:WAVCIS:CSI16:2,2011-09-01T01:30:00Z,29.4012,-89.0355,10.0,27.75,11111222 
WAVCIS,ioos:station:WAVCIS:CSI16:2,2011-09-01T01:45:00Z,29.4012,-89.0355,10.0,27.749,11111222 
WAVCIS,ioos:station:WAVCIS:CSI16:2,2011-09-01T02:00:00Z,29.4012,-89.0355,10.0,27.67,11111222 
WAVCIS,ioos:station:WAVCIS:CSI16:2,2011-09-01T02:15:00Z,29.4012,-89.0355,10.0,27.759,11111222 
WAVCIS,ioos:station:WAVCIS:CSI16:2,2011-09-01T02:30:00Z,29.4012,-89.0355,10.0,27.737,11111222 
WAVCIS,ioos:station:WAVCIS:CSI16:2,2011-09-01T02:45:00Z,29.4012,-89.0355,10.0,27.562,11111222 
WAVCIS,ioos:station:WAVCIS:CSI16:2,2011-09-01T03:00:00Z,29.4012,-89.0355,10.0,27.678,11111222 
WAVCIS,ioos:station:WAVCIS:CSI16:2,2011-09-01T03:15:00Z,29.4012,-89.0355,10.0,27.499,11111222 
WAVCIS,ioos:station:WAVCIS:CSI16:2,2011-09-01T03:30:00Z,29.4012,-89.0355,10.0,27.548,11111222 
WAVCIS,ioos:station:WAVCIS:CSI16:2,2011-09-01T03:45:00Z,29.4012,-89.0355,10.0,27.663,11111222 
WAVCIS,ioos:station:WAVCIS:CSI16:2,2011-09-01T04:00:00Z,29.4012,-89.0355,10.0,27.807,11111222 
WAVCIS,ioos:station:WAVCIS:CSI16:2,2011-09-01T04:15:00Z,29.4012,-89.0355,10.0,27.899,11111222 
WAVCIS,ioos:station:WAVCIS:CSI16:2,2011-09-01T04:30:00Z,29.4012,-89.0355,10.0,28.048,11111222 
WAVCIS,ioos:station:WAVCIS:CSI16:2,2011-09-01T04:45:00Z,29.4012,-89.0355,10.0,29.685,11111222 
WAVCIS,ioos:station:WAVCIS:CSI16:2,2011-09-01T05:00:00Z,29.4012,-89.0355,10.0,29.76,11111222 
WAVCIS,ioos:station:WAVCIS:CSI16:2,2011-09-01T05:15:00Z,29.4012,-89.0355,10.0,29.403,11111222 
WAVCIS,ioos:station:WAVCIS:CSI16:2,2011-09-01T05:30:00Z,29.4012,-89.0355,10.0,29.581,11111222 
WAVCIS,ioos:station:WAVCIS:CSI16:2,2011-09-01T05:45:00Z,29.4012,-89.0355,10.0,29.644,11111222 
WAVCIS,ioos:station:WAVCIS:CSI16:2,2011-09-01T06:00:00Z,29.4012,-89.0355,10.0,29.769,11111222 
WAVCIS,ioos:station:WAVCIS:CSI16:2,2011-09-01T06:15:00Z,29.4012,-89.0355,10.0,29.33,11111222 
WAVCIS,ioos:station:WAVCIS:CSI16:2,2011-09-01T06:30:00Z,29.4012,-89.0355,10.0,29.283,11111222 
WAVCIS,ioos:station:WAVCIS:CSI16:2,2011-09-01T06:45:00Z,29.4012,-89.0355,10.0,29.045,11111222 
WAVCIS,ioos:station:WAVCIS:CSI16:2,2011-09-01T07:00:00Z,29.4012,-89.0355,10.0,28.312,11111222 
WAVCIS,ioos:station:WAVCIS:CSI16:2,2011-09-01T07:15:00Z,29.4012,-89.0355,10.0,28.465,11111222 
WAVCIS,ioos:station:WAVCIS:CSI16:2,2011-09-01T07:30:00Z,29.4012,-89.0355,10.0,28.369,11111222 
WAVCIS,ioos:station:WAVCIS:CSI16:2,2011-09-01T07:45:00Z,29.4012,-89.0355,10.0,28.365,11111222 
WAVCIS,ioos:station:WAVCIS:CSI16:2,2011-09-01T08:00:00Z,29.4012,-89.0355,10.0,28.599,11111222 
WAVCIS,ioos:station:WAVCIS:CSI16:2,2011-09-01T08:15:00Z,29.4012,-89.0355,10.0,28.5,11111222 
WAVCIS,ioos:station:WAVCIS:CSI16:2,2011-09-01T08:30:00Z,29.4012,-89.0355,10.0,28.912,11111222 
WAVCIS,ioos:station:WAVCIS:CSI16:2,2011-09-01T08:45:00Z,29.4012,-89.0355,10.0,28.945,11111222 
WAVCIS,ioos:station:WAVCIS:CSI16:2,2011-09-01T09:00:00Z,29.4012,-89.0355,10.0,29.201,11111222 
WAVCIS,ioos:station:WAVCIS:CSI16:2,2011-09-01T09:15:00Z,29.4012,-89.0355,10.0,29.059,11111222 
WAVCIS,ioos:station:WAVCIS:CSI16:2,2011-09-01T09:30:00Z,29.4012,-89.0355,10.0,29.404,11111222 
WAVCIS,ioos:station:WAVCIS:CSI16:2,2011-09-01T09:45:00Z,29.4012,-89.0355,10.0,29.375,11111222 
WAVCIS,ioos:station:WAVCIS:CSI16:2,2011-09-01T10:00:00Z,29.4012,-89.0355,10.0,29.536,11111222 
WAVCIS,ioos:station:WAVCIS:CSI16:2,2011-09-01T10:15:00Z,29.4012,-89.0355,10.0,29.453,11111222 
WAVCIS,ioos:station:WAVCIS:CSI16:2,2011-09-01T10:30:00Z,29.4012,-89.0355,10.0,29.69,11111222 
WAVCIS,ioos:station:WAVCIS:CSI16:2,2011-09-01T10:45:00Z,29.4012,-89.0355,10.0,29.743,11111222 
WAVCIS,ioos:station:WAVCIS:CSI16:2,2011-09-01T11:00:00Z,29.4012,-89.0355,10.0,29.81,11111222 
WAVCIS,ioos:station:WAVCIS:CSI16:2,2011-09-01T11:15:00Z,29.4012,-89.0355,10.0,29.851,11111222 
WAVCIS,ioos:station:WAVCIS:CSI16:2,2011-09-01T11:30:00Z,29.4012,-89.0355,10.0,29.878,11111222 
WAVCIS,ioos:station:WAVCIS:CSI16:2,2011-09-01T11:45:00Z,29.4012,-89.0355,10.0,29.86,11111222 
WAVCIS,ioos:station:WAVCIS:CSI16:2,2011-09-01T12:00:00Z,29.4012,-89.0355,10.0,29.86,11111222 
WAVCIS,ioos:station:WAVCIS:CSI16:2,2011-09-01T12:15:00Z,29.4012,-89.0355,10.0,29.861,11111222 
WAVCIS,ioos:station:WAVCIS:CSI16:2,2011-09-01T12:30:00Z,29.4012,-89.0355,10.0,29.864,11111222 
WAVCIS,ioos:station:WAVCIS:CSI16:2,2011-09-01T12:45:00Z,29.4012,-89.0355,10.0,29.86,11111222 
WAVCIS,ioos:station:WAVCIS:CSI16:2,2011-09-01T13:00:00Z,29.4012,-89.0355,10.0,29.861,11111222 
WAVCIS,ioos:station:WAVCIS:CSI16:2,2011-09-01T13:15:00Z,29.4012,-89.0355,10.0,29.848,11111222 
WAVCIS,ioos:station:WAVCIS:CSI16:2,2011-09-01T13:30:00Z,29.4012,-89.0355,10.0,29.852,11111222 
WAVCIS,ioos:station:WAVCIS:CSI16:2,2011-09-01T13:45:00Z,29.4012,-89.0355,10.0,29.848,11111222 
WAVCIS,ioos:station:WAVCIS:CSI16:2,2011-09-01T14:00:00Z,29.4012,-89.0355,10.0,29.838,11111222 
WAVCIS,ioos:station:WAVCIS:CSI16:2,2011-09-01T14:15:00Z,29.4012,-89.0355,10.0,29.836,11111222 
WAVCIS,ioos:station:WAVCIS:CSI16:2,2011-09-01T14:30:00Z,29.4012,-89.0355,10.0,29.846,11111222 
WAVCIS,ioos:station:WAVCIS:CSI16:2,2011-09-01T14:45:00Z,29.4012,-89.0355,10.0,29.839,11111222 
WAVCIS,ioos:station:WAVCIS:CSI16:2,2011-09-01T15:00:00Z,29.4012,-89.0355,10.0,29.845,11111222 
WAVCIS,ioos:station:WAVCIS:CSI16:2,2011-09-01T15:15:00Z,29.4012,-89.0355,10.0,29.855,11111222 
WAVCIS,ioos:station:WAVCIS:CSI16:2,2011-09-01T15:30:00Z,29.4012,-89.0355,10.0,29.865,11111222 
WAVCIS,ioos:station:WAVCIS:CSI16:2,2011-09-01T15:45:00Z,29.4012,-89.0355,10.0,29.87,11111222 
WAVCIS,ioos:station:WAVCIS:CSI16:2,2011-09-01T16:00:00Z,29.4012,-89.0355,10.0,29.871,11111222 
WAVCIS,ioos:station:WAVCIS:CSI16:2,2011-09-01T16:15:00Z,29.4012,-89.0355,10.0,29.874,11111222 
WAVCIS,ioos:station:WAVCIS:CSI16:2,2011-09-01T16:30:00Z,29.4012,-89.0355,10.0,29.86,11111222 
WAVCIS,ioos:station:WAVCIS:CSI16:2,2011-09-01T16:45:00Z,29.4012,-89.0355,10.0,29.826,11111222 
WAVCIS,ioos:station:WAVCIS:CSI16:2,2011-09-01T17:00:00Z,29.4012,-89.0355,10.0,29.794,11111222 
WAVCIS,ioos:station:WAVCIS:CSI16:2,2011-09-01T17:15:00Z,29.4012,-89.0355,10.0,29.757,11111222 
WAVCIS,ioos:station:WAVCIS:CSI16:2,2011-09-01T17:30:00Z,29.4012,-89.0355,10.0,29.744,11111222 
WAVCIS,ioos:station:WAVCIS:CSI16:2,2011-09-01T17:45:00Z,29.4012,-89.0355,10.0,29.726,11111222 
WAVCIS,ioos:station:WAVCIS:CSI16:2,2011-09-01T18:00:00Z,29.4012,-89.0355,10.0,29.696,11111222 
WAVCIS,ioos:station:WAVCIS:CSI16:2,2011-09-01T18:15:00Z,29.4012,-89.0355,10.0,29.679,11111222 
WAVCIS,ioos:station:WAVCIS:CSI16:2,2011-09-01T18:30:00Z,29.4012,-89.0355,10.0,29.674,11111222 
WAVCIS,ioos:station:WAVCIS:CSI16:2,2011-09-01T18:45:00Z,29.4012,-89.0355,10.0,29.649,11111222 
WAVCIS,ioos:station:WAVCIS:CSI16:2,2011-09-01T19:00:00Z,29.4012,-89.0355,10.0,29.626,11111222 
WAVCIS,ioos:station:WAVCIS:CSI16:2,2011-09-01T19:15:00Z,29.4012,-89.0355,10.0,29.618,11111222 
WAVCIS,ioos:station:WAVCIS:CSI16:2,2011-09-01T19:30:00Z,29.4012,-89.0355,10.0,29.613,11111222 
WAVCIS,ioos:station:WAVCIS:CSI16:2,2011-09-01T19:45:00Z,29.4012,-89.0355,10.0,29.617,11111222 
WAVCIS,ioos:station:WAVCIS:CSI16:2,2011-09-01T20:00:00Z,29.4012,-89.0355,10.0,29.622,11111222 
WAVCIS,ioos:station:WAVCIS:CSI16:2,2011-09-01T20:15:00Z,29.4012,-89.0355,10.0,29.626,11111222 
WAVCIS,ioos:station:WAVCIS:CSI16:2,2011-09-01T20:30:00Z,29.4012,-89.0355,10.0,29.631,11111222 
WAVCIS,ioos:station:WAVCIS:CSI16:2,2011-09-01T20:45:00Z,29.4012,-89.0355,10.0,29.622,11111222 
WAVCIS,ioos:station:WAVCIS:CSI16:2,2011-09-01T21:00:00Z,29.4012,-89.0355,10.0,29.562,11111222 
WAVCIS,ioos:station:WAVCIS:CSI16:2,2011-09-01T21:15:00Z,29.4012,-89.0355,10.0,29.56,11111222 
WAVCIS,ioos:station:WAVCIS:CSI16:2,2011-09-01T21:30:00Z,29.4012,-89.0355,10.0,29.558,11111222 
WAVCIS,ioos:station:WAVCIS:CSI16:2,2011-09-01T21:45:00Z,29.4012,-89.0355,10.0,29.563,11111222 
WAVCIS,ioos:station:WAVCIS:CSI16:2,2011-09-01T22:00:00Z,29.4012,-89.0355,10.0,29.538,11111222 
WAVCIS,ioos:station:WAVCIS:CSI16:2,2011-09-01T22:15:00Z,29.4012,-89.0355,10.0,29.504,11111222 
WAVCIS,ioos:station:WAVCIS:CSI16:2,2011-09-01T22:30:00Z,29.4012,-89.0355,10.0,29.494,11111222 
WAVCIS,ioos:station:WAVCIS:CSI16:2,2011-09-01T22:45:00Z,29.4012,-89.0355,10.0,29.497,11111222 
WAVCIS,ioos:station:WAVCIS:CSI16:2,2011-09-01T23:00:00Z,29.4012,-89.0355,10.0,29.5,11111222 
WAVCIS,ioos:station:WAVCIS:CSI16:2,2011-09-01T23:15:00Z,29.4012,-89.0355,10.0,29.501,11111222 
WAVCIS,ioos:station:WAVCIS:CSI16:2,2011-09-01T23:30:00Z,29.4012,-89.0355,10.0,29.495,11111222 
WAVCIS,ioos:station:WAVCIS:CSI16:2,2011-09-01T23:45:00Z,29.4012,-89.0355,10.0,29.473,11111222 
WAVCIS,ioos:station:WAVCIS:CSI16:2,2011-09-02T00:00:00Z,29.4012,-89.0355,10.0,29.48,11111222 
WAVCIS,ioos:station:WAVCIS:CSI16:2,2011-09-02T00:15:00Z,29.4012,-89.0355,10.0,29.469,11111222 
WAVCIS,ioos:station:WAVCIS:CSI16:2,2011-09-02T00:30:00Z,29.4012,-89.0355,10.0,29.438,11111222 
WAVCIS,ioos:station:WAVCIS:CSI16:2,2011-09-02T00:45:00Z,29.4012,-89.0355,10.0,29.429,11111222 
WAVCIS,ioos:station:WAVCIS:CSI16:2,2011-09-02T01:00:00Z,29.4012,-89.0355,10.0,29.427,11111222 
WAVCIS,ioos:station:WAVCIS:CSI16:2,2011-09-02T01:15:00Z,29.4012,-89.0355,10.0,29.425,11111222 
WAVCIS,ioos:station:WAVCIS:CSI16:2,2011-09-02T01:30:00Z,29.4012,-89.0355,10.0,29.424,11111222 
WAVCIS,ioos:station:WAVCIS:CSI16:2,2011-09-02T01:45:00Z,29.4012,-89.0355,10.0,29.425,11111222 
WAVCIS,ioos:station:WAVCIS:CSI16:2,2011-09-02T02:00:00Z,29.4012,-89.0355,10.0,29.426,11111222 
WAVCIS,ioos:station:WAVCIS:CSI16:2,2011-09-02T02:15:00Z,29.4012,-89.0355,10.0,29.42,11111222 
WAVCIS,ioos:station:WAVCIS:CSI16:2,2011-09-02T02:30:00Z,29.4012,-89.0355,10.0,29.416,11111222 
WAVCIS,ioos:station:WAVCIS:CSI16:2,2011-09-02T02:45:00Z,29.4012,-89.0355,10.0,29.412,11111222 
WAVCIS,ioos:station:WAVCIS:CSI16:2,2011-09-02T03:00:00Z,29.4012,-89.0355,10.0,29.409,11111222 
WAVCIS,ioos:station:WAVCIS:CSI16:2,2011-09-02T03:15:00Z,29.4012,-89.0355,10.0,29.4,11111222 
WAVCIS,ioos:station:WAVCIS:CSI16:2,2011-09-02T03:30:00Z,29.4012,-89.0355,10.0,29.386,11111222 
WAVCIS,ioos:station:WAVCIS:CSI16:2,2011-09-02T03:45:00Z,29.4012,-89.0355,10.0,29.371,11111222 
WAVCIS,ioos:station:WAVCIS:CSI16:2,2011-09-02T04:00:00Z,29.4012,-89.0355,10.0,29.363,11111222 
WAVCIS,ioos:station:WAVCIS:CSI16:2,2011-09-02T04:15:00Z,29.4012,-89.0355,10.0,29.36,11111222 
WAVCIS,ioos:station:WAVCIS:CSI16:2,2011-09-02T04:30:00Z,29.4012,-89.0355,10.0,29.371,11111222 
WAVCIS,ioos:station:WAVCIS:CSI16:2,2011-09-02T04:45:00Z,29.4012,-89.0355,10.0,29.371,11111222 
WAVCIS,ioos:station:WAVCIS:CSI16:2,2011-09-02T05:00:00Z,29.4012,-89.0355,10.0,29.368,11111222 
WAVCIS,ioos:station:WAVCIS:CSI16:2,2011-09-02T05:15:00Z,29.4012,-89.0355,10.0,29.378,11111222 
WAVCIS,ioos:station:WAVCIS:CSI16:2,2011-09-02T05:30:00Z,29.4012,-89.0355,10.0,29.38,11111222 
WAVCIS,ioos:station:WAVCIS:CSI16:2,2011-09-02T05:45:00Z,29.4012,-89.0355,10.0,29.377,11111222 
WAVCIS,ioos:station:WAVCIS:CSI16:2,2011-09-02T06:00:00Z,29.4012,-89.0355,10.0,29.369,11111222 
WAVCIS,ioos:station:WAVCIS:CSI16:2,2011-09-02T06:15:00Z,29.4012,-89.0355,10.0,29.362,11111222 
WAVCIS,ioos:station:WAVCIS:CSI16:2,2011-09-02T06:30:00Z,29.4012,-89.0355,10.0,29.354,11111222 
WAVCIS,ioos:station:WAVCIS:CSI16:2,2011-09-02T06:45:00Z,29.4012,-89.0355,10.0,29.346,11111222 
WAVCIS,ioos:station:WAVCIS:CSI16:2,2011-09-02T07:00:00Z,29.4012,-89.0355,10.0,29.343,11111222 
WAVCIS,ioos:station:WAVCIS:CSI16:2,2011-09-02T07:15:00Z,29.4012,-89.0355,10.0,29.332,11111222 
WAVCIS,ioos:station:WAVCIS:CSI16:2,2011-09-02T07:30:00Z,29.4012,-89.0355,10.0,29.326,11111222 
WAVCIS,ioos:station:WAVCIS:CSI16:2,2011-09-02T07:45:00Z,29.4012,-89.0355,10.0,29.315,11111222 
WAVCIS,ioos:station:WAVCIS:CSI16:2,2011-09-02T08:00:00Z,29.4012,-89.0355,10.0,29.296,11111222 
WAVCIS,ioos:station:WAVCIS:CSI16:2,2011-09-02T08:15:00Z,29.4012,-89.0355,10.0,29.287,11111222 
WAVCIS,ioos:station:WAVCIS:CSI16:2,2011-09-02T08:30:00Z,29.4012,-89.0355,10.0,29.277,11111222 
WAVCIS,ioos:station:WAVCIS:CSI16:2,2011-09-02T08:45:00Z,29.4012,-89.0355,10.0,29.25,11111222 
WAVCIS,ioos:station:WAVCIS:CSI16:2,2011-09-02T09:00:00Z,29.4012,-89.0355,10.0,29.224,11111222 
WAVCIS,ioos:station:WAVCIS:CSI16:2,2011-09-02T09:15:00Z,29.4012,-89.0355,10.0,29.209,11111222 
WAVCIS,ioos:station:WAVCIS:CSI16:2,2011-09-02T09:30:00Z,29.4012,-89.0355,10.0,29.199,11111222 
WAVCIS,ioos:station:WAVCIS:CSI16:2,2011-09-02T09:45:00Z,29.4012,-89.0355,10.0,29.21,11111222 
WAVCIS,ioos:station:WAVCIS:CSI16:2,2011-09-02T10:00:00Z,29.4012,-89.0355,10.0,29.202,11111222 
WAVCIS,ioos:station:WAVCIS:CSI16:2,2011-09-02T10:15:00Z,29.4012,-89.0355,10.0,29.217,11111222 
WAVCIS,ioos:station:WAVCIS:CSI16:2,2011-09-02T10:30:00Z,29.4012,-89.0355,10.0,29.185,11111222 
WAVCIS,ioos:station:WAVCIS:CSI16:2,2011-09-02T10:45:00Z,29.4012,-89.0355,10.0,29.178,11111222 
WAVCIS,ioos:station:WAVCIS:CSI16:2,2011-09-02T11:00:00Z,29.4012,-89.0355,10.0,29.161,11111222 
WAVCIS,ioos:station:WAVCIS:CSI16:2,2011-09-02T11:15:00Z,29.4012,-89.0355,10.0,29.145,11111222 
WAVCIS,ioos:station:WAVCIS:CSI16:2,2011-09-02T11:30:00Z,29.4012,-89.0355,10.0,29.147,11111222 
WAVCIS,ioos:station:WAVCIS:CSI16:2,2011-09-02T11:45:00Z,29.4012,-89.0355,10.0,29.138,11111222 
WAVCIS,ioos:station:WAVCIS:CSI16:2,2011-09-02T12:00:00Z,29.4012,-89.0355,10.0,29.117,11111222 
WAVCIS,ioos:station:WAVCIS:CSI16:2,2011-09-02T12:15:00Z,29.4012,-89.0355,10.0,29.111,11111222 
WAVCIS,ioos:station:WAVCIS:CSI16:2,2011-09-02T12:30:00Z,29.4012,-89.0355,10.0,29.095,11111222 
WAVCIS,ioos:station:WAVCIS:CSI16:2,2011-09-02T12:45:00Z,29.4012,-89.0355,10.0,29.093,11111222 
WAVCIS,ioos:station:WAVCIS:CSI16:2,2011-09-02T13:00:00Z,29.4012,-89.0355,10.0,29.083,11111222 
WAVCIS,ioos:station:WAVCIS:CSI16:2,2011-09-02T13:15:00Z,29.4012,-89.0355,10.0,29.073,11111222 
WAVCIS,ioos:station:WAVCIS:CSI16:2,2011-09-02T13:30:00Z,29.4012,-89.0355,10.0,29.071,11111222 
WAVCIS,ioos:station:WAVCIS:CSI16:2,2011-09-02T13:45:00Z,29.4012,-89.0355,10.0,29.066,11111222 
WAVCIS,ioos:station:WAVCIS:CSI16:2,2011-09-02T14:00:00Z,29.4012,-89.0355,10.0,29.051,11111222 
WAVCIS,ioos:station:WAVCIS:CSI16:2,2011-09-02T14:15:00Z,29.4012,-89.0355,10.0,29.009,11111222 
WAVCIS,ioos:station:WAVCIS:CSI16:2,2011-09-02T14:30:00Z,29.4012,-89.0355,10.0,28.972,11111222 
WAVCIS,ioos:station:WAVCIS:CSI16:2,2011-09-02T14:45:00Z,29.4012,-89.0355,10.0,28.993,11111222 
WAVCIS,ioos:station:WAVCIS:CSI16:2,2011-09-02T15:00:00Z,29.4012,-89.0355,10.0,29.019,11111222 
WAVCIS,ioos:station:WAVCIS:CSI16:2,2011-09-02T15:15:00Z,29.4012,-89.0355,10.0,29.04,11111222 
WAVCIS,ioos:station:WAVCIS:CSI16:2,2011-09-02T15:30:00Z,29.4012,-89.0355,10.0,29.06,11111222 
WAVCIS,ioos:station:WAVCIS:CSI16:2,2011-09-02T15:45:00Z,29.4012,-89.0355,10.0,29.073,11111222 
WAVCIS,ioos:station:WAVCIS:CSI16:2,2011-09-02T16:00:00Z,29.4012,-89.0355,10.0,29.084,11111222 
WAVCIS,ioos:station:WAVCIS:CSI16:2,2011-09-02T16:15:00Z,29.4012,-89.0355,10.0,29.095,11111222 
WAVCIS,ioos:station:WAVCIS:CSI16:2,2011-09-02T16:30:00Z,29.4012,-89.0355,10.0,29.085,11111222 
WAVCIS,ioos:station:WAVCIS:CSI16:2,2011-09-02T16:45:00Z,29.4012,-89.0355,10.0,29.096,11111222 
WAVCIS,ioos:station:WAVCIS:CSI16:2,2011-09-02T17:00:00Z,29.4012,-89.0355,10.0,29.077,11111222 
WAVCIS,ioos:station:WAVCIS:CSI16:2,2011-09-02T17:15:00Z,29.4012,-89.0355,10.0,29.062,11111222 
WAVCIS,ioos:station:WAVCIS:CSI16:2,2011-09-02T17:30:00Z,29.4012,-89.0355,10.0,29.057,11111222 
WAVCIS,ioos:station:WAVCIS:CSI16:2,2011-09-02T17:45:00Z,29.4012,-89.0355,10.0,29.068,11111222 
WAVCIS,ioos:station:WAVCIS:CSI16:2,2011-09-02T18:00:00Z,29.4012,-89.0355,10.0,29.077,11111222 
WAVCIS,ioos:station:WAVCIS:CSI16:2,2011-09-02T18:15:00Z,29.4012,-89.0355,10.0,29.065,11111222 
WAVCIS,ioos:station:WAVCIS:CSI16:2,2011-09-02T18:30:00Z,29.4012,-89.0355,10.0,29.054,11111222 
WAVCIS,ioos:station:WAVCIS:CSI16:2,2011-09-02T18:45:00Z,29.4012,-89.0355,10.0,29.038,11111222 
WAVCIS,ioos:station:WAVCIS:CSI16:2,2011-09-02T19:00:00Z,29.4012,-89.0355,10.0,29.026,11111222 
WAVCIS,ioos:station:WAVCIS:CSI16:2,2011-09-02T19:15:00Z,29.4012,-89.0355,10.0,29.023,11111222 
WAVCIS,ioos:station:WAVCIS:CSI16:2,2011-09-02T19:30:00Z,29.4012,-89.0355,10.0,29.035,11111222 
WAVCIS,ioos:station:WAVCIS:CSI16:2,2011-09-02T19:45:00Z,29.4012,-89.0355,10.0,29.025,11111222 
WAVCIS,ioos:station:WAVCIS:CSI16:2,2011-09-02T20:00:00Z,29.4012,-89.0355,10.0,29.011,11111222 
WAVCIS,ioos:station:WAVCIS:CSI16:2,2011-09-02T20:15:00Z,29.4012,-89.0355,10.0,29.031,11111222 
WAVCIS,ioos:station:WAVCIS:CSI16:2,2011-09-02T20:30:00Z,29.4012,-89.0355,10.0,29.031,11111222 
WAVCIS,ioos:station:WAVCIS:CSI16:2,2011-09-02T20:45:00Z,29.4012,-89.0355,10.0,29.027,11111222 
WAVCIS,ioos:station:WAVCIS:CSI16:2,2011-09-02T21:00:00Z,29.4012,-89.0355,10.0,29.024,11111222 
WAVCIS,ioos:station:WAVCIS:CSI16:2,2011-09-02T21:15:00Z,29.4012,-89.0355,10.0,29.029,11111222 
WAVCIS,ioos:station:WAVCIS:CSI16:2,2011-09-02T21:30:00Z,29.4012,-89.0355,10.0,29.018,11111222 
WAVCIS,ioos:station:WAVCIS:CSI16:2,2011-09-02T21:45:00Z,29.4012,-89.0355,10.0,29.011,11111222 
WAVCIS,ioos:station:WAVCIS:CSI16:2,2011-09-02T22:00:00Z,29.4012,-89.0355,10.0,29.017,11111222 
WAVCIS,ioos:station:WAVCIS:CSI16:2,2011-09-02T22:15:00Z,29.4012,-89.0355,10.0,29.014,11111222 
WAVCIS,ioos:station:WAVCIS:CSI16:2,2011-09-02T22:30:00Z,29.4012,-89.0355,10.0,28.988,11111222 
WAVCIS,ioos:station:WAVCIS:CSI16:2,2011-09-02T22:45:00Z,29.4012,-89.0355,10.0,28.987,11111222 
WAVCIS,ioos:station:WAVCIS:CSI16:2,2011-09-02T23:00:00Z,29.4012,-89.0355,10.0,28.96,11111222 
WAVCIS,ioos:station:WAVCIS:CSI16:2,2011-09-02T23:15:00Z,29.4012,-89.0355,10.0,28.943,11111222 
WAVCIS,ioos:station:WAVCIS:CSI16:2,2011-09-02T23:30:00Z,29.4012,-89.0355,10.0,28.953,11111222 
WAVCIS,ioos:station:WAVCIS:CSI16:2,2011-09-02T23:45:00Z,29.4012,-89.0355,10.0,28.941,11111222 
WAVCIS,ioos:station:WAVCIS:CSI16:2,2011-09-03T00:00:00Z,29.4012,-89.0355,10.0,28.928,11111222 
WAVCIS,ioos:station:WAVCIS:CSI16:2,2011-09-03T00:15:00Z,29.4012,-89.0355,10.0,28.952,11111222 
WAVCIS,ioos:station:WAVCIS:CSI16:2,2011-09-03T00:30:00Z,29.4012,-89.0355,10.0,28.915,11111222 
WAVCIS,ioos:station:WAVCIS:CSI16:2,2011-09-03T00:45:00Z,29.4012,-89.0355,10.0,28.921,11111222 
WAVCIS,ioos:station:WAVCIS:CSI16:2,2011-09-03T01:00:00Z,29.4012,-89.0355,10.0,28.917,11111222 
WAVCIS,ioos:station:WAVCIS:CSI16:2,2011-09-03T01:15:00Z,29.4012,-89.0355,10.0,28.907,11111222 
WAVCIS,ioos:station:WAVCIS:CSI16:2,2011-09-03T01:30:00Z,29.4012,-89.0355,10.0,28.9,11111222 
WAVCIS,ioos:station:WAVCIS:CSI16:2,2011-09-03T01:45:00Z,29.4012,-89.0355,10.0,28.861,11111222 
WAVCIS,ioos:station:WAVCIS:CSI16:2,2011-09-03T02:00:00Z,29.4012,-89.0355,10.0,28.852,11111222 
WAVCIS,ioos:station:WAVCIS:CSI16:2,2011-09-03T02:15:00Z,29.4012,-89.0355,10.0,28.841,11111222 
WAVCIS,ioos:station:WAVCIS:CSI16:2,2011-09-03T02:30:00Z,29.4012,-89.0355,10.0,28.852,11111222 
WAVCIS,ioos:station:WAVCIS:CSI16:2,2011-09-03T02:45:00Z,29.4012,-89.0355,10.0,28.812,11111222 
WAVCIS,ioos:station:WAVCIS:CSI16:2,2011-09-03T03:00:00Z,29.4012,-89.0355,10.0,28.816,11111222 
WAVCIS,ioos:station:WAVCIS:CSI16:2,2011-09-03T03:15:00Z,29.4012,-89.0355,10.0,28.787,11111222 
WAVCIS,ioos:station:WAVCIS:CSI16:2,2011-09-03T03:30:00Z,29.4012,-89.0355,10.0,28.734,11111222 
WAVCIS,ioos:station:WAVCIS:CSI16:2,2011-09-03T03:45:00Z,29.4012,-89.0355,10.0,28.712,11111222 
WAVCIS,ioos:station:WAVCIS:CSI16:2,2011-09-03T04:00:00Z,29.4012,-89.0355,10.0,28.694,11111222 
WAVCIS,ioos:station:WAVCIS:CSI16:2,2011-09-03T04:15:00Z,29.4012,-89.0355,10.0,28.666,11111222 
WAVCIS,ioos:station:WAVCIS:CSI16:2,2011-09-03T04:30:00Z,29.4012,-89.0355,10.0,28.647,11111222 
WAVCIS,ioos:station:WAVCIS:CSI16:2,2011-09-03T04:45:00Z,29.4012,-89.0355,10.0,28.628,11111222 
WAVCIS,ioos:station:WAVCIS:CSI16:2,2011-09-03T05:00:00Z,29.4012,-89.0355,10.0,28.607,11111222 
WAVCIS,ioos:station:WAVCIS:CSI16:2,2011-09-03T05:15:00Z,29.4012,-89.0355,10.0,28.609,11111222 
WAVCIS,ioos:station:WAVCIS:CSI16:2,2011-09-03T05:30:00Z,29.4012,-89.0355,10.0,28.602,11111222 
WAVCIS,ioos:station:WAVCIS:CSI16:2,2011-09-03T05:45:00Z,29.4012,-89.0355,10.0,28.611,11111222 
WAVCIS,ioos:station:WAVCIS:CSI16:2,2011-09-03T06:00:00Z,29.4012,-89.0355,10.0,28.585,11111222 
WAVCIS,ioos:station:WAVCIS:CSI16:2,2011-09-03T06:15:00Z,29.4012,-89.0355,10.0,28.567,11111222 
WAVCIS,ioos:station:WAVCIS:CSI16:2,2011-09-03T06:30:00Z,29.4012,-89.0355,10.0,28.552,11111222 
WAVCIS,ioos:station:WAVCIS:CSI16:2,2011-09-03T06:45:00Z,29.4012,-89.0355,10.0,28.518,11111222 
WAVCIS,ioos:station:WAVCIS:CSI16:2,2011-09-03T07:00:00Z,29.4012,-89.0355,10.0,28.467,11111222 
WAVCIS,ioos:station:WAVCIS:CSI16:2,2011-09-03T07:15:00Z,29.4012,-89.0355,10.0,28.445,11111222 
WAVCIS,ioos:station:WAVCIS:CSI16:2,2011-09-03T07:30:00Z,29.4012,-89.0355,10.0,28.425,11111222 
WAVCIS,ioos:station:WAVCIS:CSI16:2,2011-09-03T07:45:00Z,29.4012,-89.0355,10.0,28.411,11111222 
WAVCIS,ioos:station:WAVCIS:CSI16:2,2011-09-03T08:00:00Z,29.4012,-89.0355,10.0,28.398,11111222 
WAVCIS,ioos:station:WAVCIS:CSI16:2,2011-09-03T08:15:00Z,29.4012,-89.0355,10.0,28.382,11111222 
WAVCIS,ioos:station:WAVCIS:CSI16:2,2011-09-03T08:30:00Z,29.4012,-89.0355,10.0,28.372,11111222 
WAVCIS,ioos:station:WAVCIS:CSI16:2,2011-09-03T08:45:00Z,29.4012,-89.0355,10.0,28.352,11111222 
WAVCIS,ioos:station:WAVCIS:CSI16:2,2011-09-03T09:00:00Z,29.4012,-89.0355,10.0,28.346,11111222 
WAVCIS,ioos:station:WAVCIS:CSI16:2,2011-09-03T09:15:00Z,29.4012,-89.0355,10.0,28.328,11111222 
WAVCIS,ioos:station:WAVCIS:CSI16:2,2011-09-03T09:30:00Z,29.4012,-89.0355,10.0,28.325,11111222 
WAVCIS,ioos:station:WAVCIS:CSI16:2,2011-09-03T09:45:00Z,29.4012,-89.0355,10.0,28.319,11111222 
WAVCIS,ioos:station:WAVCIS:CSI16:2,2011-09-03T10:00:00Z,29.4012,-89.0355,10.0,28.322,11111222 
WAVCIS,ioos:station:WAVCIS:CSI16:2,2011-09-03T10:15:00Z,29.4012,-89.0355,10.0,28.306,11111222 
WAVCIS,ioos:station:WAVCIS:CSI16:2,2011-09-03T10:30:00Z,29.4012,-89.0355,10.0,28.299,11111222 
WAVCIS,ioos:station:WAVCIS:CSI16:2,2011-09-03T10:45:00Z,29.4012,-89.0355,10.0,28.29,11111222 
WAVCIS,ioos:station:WAVCIS:CSI16:2,2011-09-03T11:00:00Z,29.4012,-89.0355,10.0,28.28,11111222 
WAVCIS,ioos:station:WAVCIS:CSI16:2,2011-09-03T11:15:00Z,29.4012,-89.0355,10.0,28.279,11111222 
WAVCIS,ioos:station:WAVCIS:CSI16:2,2011-09-03T11:30:00Z,29.4012,-89.0355,10.0,28.269,11111222 
WAVCIS,ioos:station:WAVCIS:CSI16:2,2011-09-03T11:45:00Z,29.4012,-89.0355,10.0,28.257,11111222 
WAVCIS,ioos:station:WAVCIS:CSI16:2,2011-09-03T12:00:00Z,29.4012,-89.0355,10.0,28.253,11111222 
WAVCIS,ioos:station:WAVCIS:CSI16:2,2011-09-03T12:15:00Z,29.4012,-89.0355,10.0,28.243,11111222 
WAVCIS,ioos:station:WAVCIS:CSI16:2,2011-09-03T12:30:00Z,29.4012,-89.0355,10.0,28.229,11111222 
WAVCIS,ioos:station:WAVCIS:CSI16:2,2011-09-03T12:45:00Z,29.4012,-89.0355,10.0,28.209,11111222 
WAVCIS,ioos:station:WAVCIS:CSI16:2,2011-09-03T13:00:00Z,29.4012,-89.0355,10.0,28.188,11111222 
WAVCIS,ioos:station:WAVCIS:CSI16:2,2011-09-03T13:15:00Z,29.4012,-89.0355,10.0,28.185,11111222 
WAVCIS,ioos:station:WAVCIS:CSI16:2,2011-09-03T13:30:00Z,29.4012,-89.0355,10.0,28.184,11111222 
WAVCIS,ioos:station:WAVCIS:CSI16:2,2011-09-03T13:45:00Z,29.4012,-89.0355,10.0,28.179,11111222 
WAVCIS,ioos:station:WAVCIS:CSI16:2,2011-09-03T14:00:00Z,29.4012,-89.0355,10.0,28.179,11111222 
WAVCIS,ioos:station:WAVCIS:CSI16:2,2011-09-03T14:15:00Z,29.4012,-89.0355,10.0,28.172,11111222 
WAVCIS,ioos:station:WAVCIS:CSI16:2,2011-09-03T14:30:00Z,29.4012,-89.0355,10.0,28.166,11111222 
WAVCIS,ioos:station:WAVCIS:CSI16:2,2011-09-03T14:45:00Z,29.4012,-89.0355,10.0,28.161,11111222 